Lid_Strength_Index
-0 1 1 0 1 1 1 0 -1 0 0 0 0 0 0 0 1 0 1 1 1 1
0 0 1 0 0 1 0 0 -0 -0 0 0 0 0 0 1 1 1 1 1 1 1
0 -0 0 0 1 0 0 0 0 0 0 0 0 0 0 1 1 1 1 1 1 1
0 0 0 0 0 0 0 0 1 0 1 1 1 0 1 1 1 1 1 1 1 1
0 0 0 1 0 0 1 0 1 0 1 1 1 1 1 1 1 1 2 1 1 1
0 0 1 1 0 0 0 0 0 0 1 1 1 1 1 1 1 1 1 1 1 1
1 1 1 1 1 1 0 1 1 1 1 1 1 1 1 1 1 1 1 1 1 1
1 0 0 1 1 1 0 1 0 1 1 1 1 1 1 1 1 1 1 1 1 0
1 1 1 1 1 1 1 1 1 1 1 1 1 7 7 2 1 1 1 2 1 0
1 1 1 1 1 1 1 1 1 1 1 1 1 10 10 8 1 1 1 1 1 1
1 1 1 1 1 1 1 2 2 1 1 1 1 11 10 8 1 1 1 1 1 1
1 1 1 2 2 1 2 2 2 1 1 1 2 13 11 5 1 1 1 1 0 0
1 2 2 2 2 2 2 2 2 2 1 3 1 13 10 5 1 2 2 1 1 8
1 2 1 1 2 2 2 2 2 2 2 1 2 5 11 11 1 1 2 2 2 1